When you browse on this site, cookies collect data to enhance your experience and personalize the content and advertising you see.
Visit our Privacy Policy to learn more. By continuing to use the site, you agree to this use of cookies and data.
  • In Hungary
  • List of Countries
  • For 7 days
  • Water Temperature
  • Satellite Maps
  • Weather Map
  • News
  • Weather Widgets
  • user-avatar
    Login

    Hourly Weather Jodlowka

    Today, 16 January, Wednesday

    Time Temperature Precipitation Wind Pressure Humidity
    00:00 -1°C° 0.5 mm 8 mps 734 mmHg 89%
    01:00 0°C° 0 mm 5 mps 733 mmHg 92%
    02:00 -1°C° 0.3 mm 6 mps 734 mmHg 91%
    03:00 0°C° 0.3 mm 7 mps 734 mmHg 90%
    04:00 0°C° 0.3 mm 8 mps 734 mmHg 89%
    05:00 0°C° 0.6 mm 8 mps 735 mmHg 91%
    06:00 0°C° 0.6 mm 7 mps 735 mmHg 92%
    07:00 -1°C° 0 mm 6 mps 736 mmHg 92%
    08:00 -1°C° 0.6 mm 6 mps 736 mmHg 92%
    09:00 +1°C° 0.6 mm 5 mps 737 mmHg 93%
    10:00 +1°C° 0.6 mm 5 mps 737 mmHg 94%
    11:00 +1°C° 0.1 mm 6 mps 738 mmHg 94%
    12:00 +1°C° 0.1 mm 6 mps 738 mmHg 94%
    13:00 +1°C° 0.1 mm 6 mps 738 mmHg 94%
    14:00 +1°C° 0 mm 5 mps 738 mmHg 94%
    15:00 +1°C° 0 mm 4 mps 738 mmHg 93%
    16:00 +2°C° 0 mm 3 mps 739 mmHg 93%
    17:00 +1°C° 0 mm 3 mps 739 mmHg 92%
    18:00 +1°C° 0 mm 3 mps 739 mmHg 91%
    19:00 +2°C° 0 mm 2 mps 739 mmHg 90%
    20:00 +1°C° 0 mm 2 mps 739 mmHg 89%
    21:00 +1°C° 0 mm 2 mps 739 mmHg 88%
    22:00 +1°C° 0 mm 2 mps 739 mmHg 87%
    23:00 +1°C° 0 mm 2 mps 738 mmHg 86%

    Tomorrow, 17 January, Thursday

    Time Temperature Precipitation Wind Pressure Humidity
    00:00 -1°C° 0 mm 2 mps 738 mmHg 85%
    01:00 -1°C° 0 mm 2 mps 738 mmHg 85%
    02:00 -1°C° 0 mm 3 mps 737 mmHg 84%
    03:00 -1°C° 0 mm 3 mps 737 mmHg 83%
    04:00 -1°C° 0 mm 3 mps 736 mmHg 82%
    05:00 0°C° 0 mm 3 mps 736 mmHg 79%
    06:00 0°C° 0 mm 3 mps 736 mmHg 77%
    07:00 -1°C° 0 mm 4 mps 736 mmHg 75%
    08:00 0°C° 0 mm 4 mps 736 mmHg 74%
    09:00 +1°C° 0 mm 4 mps 736 mmHg 74%
    10:00 +1°C° 0 mm 4 mps 736 mmHg 73%
    11:00 +3°C° 0 mm 3 mps 736 mmHg 76%
    12:00 +3°C° 0 mm 3 mps 736 mmHg 79%
    13:00 +4°C° 0 mm 3 mps 736 mmHg 82%
    14:00 +3°C° 0 mm 3 mps 736 mmHg 83%
    15:00 +2°C° 0 mm 3 mps 736 mmHg 84%
    16:00 +2°C° 0 mm 3 mps 736 mmHg 85%
    17:00 +2°C° 0 mm 3 mps 736 mmHg 84%
    18:00 +1°C° 0 mm 3 mps 736 mmHg 84%
    19:00 +1°C° 0 mm 3 mps 736 mmHg 83%
    20:00 +1°C° 0 mm 4 mps 736 mmHg 82%
    21:00 +1°C° 0 mm 4 mps 736 mmHg 81%
    22:00 +1°C° 0 mm 5 mps 736 mmHg 80%
    23:00 +1°C° 0 mm 5 mps 736 mmHg 81%

    Day after tomorrow, 18 January, Friday

    Time Temperature Precipitation Wind Pressure Humidity
    00:00 +1°C° 0 mm 5 mps 736 mmHg 81%
    01:00 +1°C° 0 mm 6 mps 737 mmHg 82%
    02:00 0°C° 0 mm 5 mps 737 mmHg 83%
    03:00 0°C° 0 mm 5 mps 737 mmHg 84%
    04:00 -1°C° 0 mm 4 mps 737 mmHg 85%
    05:00 -1°C° 0 mm 5 mps 738 mmHg 81%
    06:00 -2°C° 0 mm 5 mps 738 mmHg 78%
    07:00 -4°C° 0 mm 6 mps 739 mmHg 74%
    08:00 -3°C° 0 mm 7 mps 740 mmHg 71%
    09:00 -3°C° 0 mm 7 mps 741 mmHg 69%
    10:00 -4°C° 0 mm 8 mps 742 mmHg 67%
    11:00 -4°C° 0 mm 8 mps 742 mmHg 68%
    12:00 -3°C° 0 mm 7 mps 743 mmHg 69%
    13:00 -2°C° 0 mm 7 mps 743 mmHg 70%
    14:00 -2°C° 0 mm 6 mps 744 mmHg 73%
    15:00 -2°C° 0 mm 5 mps 744 mmHg 75%
    16:00 -2°C° 0 mm 4 mps 745 mmHg 78%
    17:00 -3°C° 0 mm 4 mps 746 mmHg 80%
    18:00 -2°C° 0 mm 3 mps 746 mmHg 81%
    19:00 -4°C° 0 mm 3 mps 747 mmHg 83%
    20:00 -3°C° 0 mm 2 mps 747 mmHg 83%
    21:00 -3°C° 0 mm 2 mps 747 mmHg 83%
    22:00 -3°C° 0 mm 2 mps 747 mmHg 83%
    23:00 -4°C° 0 mm 2 mps 747 mmHg 82%

    19 January, Saturday

    Time Temperature Precipitation Wind Pressure Humidity
    00:00 -4°C° 0 mm 2 mps 747 mmHg 81%
    01:00 -4°C° 0 mm 2 mps 747 mmHg 79%
    02:00 -4°C° 0 mm 2 mps 747 mmHg 78%
    03:00 -2°C° 0 mm 1 mps 747 mmHg 77%
    04:00 -2°C° 0 mm 1 mps 747 mmHg 76%
    05:00 -2°C° 0 mm 1 mps 747 mmHg 75%
    06:00 -2°C° 0 mm 1 mps 747 mmHg 74%
    07:00 -2°C° 0 mm 1 mps 747 mmHg 73%
    08:00 -2°C° 0 mm 1 mps 747 mmHg 71%
    09:00 -1°C° 0 mm 1 mps 747 mmHg 68%
    10:00 0°C° 0 mm 1 mps 747 mmHg 65%
    11:00 0°C° 0 mm 1 mps 746 mmHg 63%
    12:00 +1°C° 0 mm 1 mps 746 mmHg 61%
    13:00 0°C° 0 mm 0 mps 746 mmHg 59%
    14:00 +1°C° 0 mm 1 mps 745 mmHg 64%
    15:00 0°C° 0 mm 1 mps 745 mmHg 68%
    16:00 0°C° 0 mm 1 mps 745 mmHg 73%
    17:00 -1°C° 0 mm 1 mps 745 mmHg 75%
    18:00 -1°C° 0 mm 1 mps 745 mmHg 77%
    19:00 -1°C° 0 mm 1 mps 745 mmHg 79%
    20:00 -1°C° 0 mm 1 mps 745 mmHg 80%
    21:00 -1°C° 0 mm 1 mps 745 mmHg 80%
    22:00 -1°C° 0 mm 1 mps 744 mmHg 81%
    23:00 -1°C° 0 mm 1 mps 744 mmHg 81%

    20 January, Sunday

    Time Temperature Precipitation Wind Pressure Humidity
    00:00 -1°C° 0 mm 1 mps 744 mmHg 81%
    01:00 -1°C° 0 mm 1 mps 744 mmHg 82%
    02:00 -1°C° 0 mm 1 mps 743 mmHg 82%
    03:00 -2°C° 0 mm 0 mps 743 mmHg 83%
    04:00 -2°C° 0 mm 0 mps 742 mmHg 83%
    05:00 -3°C° 0 mm 0 mps 742 mmHg 84%
    06:00 -3°C° 0 mm 0 mps 742 mmHg 84%
    07:00 -3°C° 0 mm 0 mps 742 mmHg 85%
    08:00 -3°C° 0 mm 0 mps 742 mmHg 83%
    09:00 -2°C° 0 mm 0 mps 742 mmHg 81%
    10:00 -2°C° 0 mm 0 mps 742 mmHg 78%
    11:00 -1°C° 0 mm 0 mps 742 mmHg 76%
    12:00 0°C° 0 mm 1 mps 742 mmHg 73%
    13:00 +1°C° 0 mm 1 mps 742 mmHg 71%
    14:00 0°C° 0 mm 1 mps 742 mmHg 74%
    15:00 0°C° 0 mm 1 mps 741 mmHg 76%
    16:00 -2°C° 0 mm 0 mps 741 mmHg 78%
    17:00 -2°C° 0 mm 0 mps 742 mmHg 79%
    18:00 -2°C° 0 mm 0 mps 742 mmHg 80%
    19:00 -3°C° 0 mm 0 mps 742 mmHg 80%
    20:00 -3°C° 0 mm 0 mps 743 mmHg 80%
    21:00 -2°C° 0 mm 1 mps 743 mmHg 80%
    22:00 -2°C° 0 mm 1 mps 743 mmHg 80%
    23:00 -2°C° 0 mm 1 mps 743 mmHg 80%

    21 January, Monday

    Time Temperature Precipitation Wind Pressure Humidity
    00:00 -4°C° 0 mm 2 mps 744 mmHg 80%
    01:00 -5°C° 0 mm 2 mps 744 mmHg 79%
    02:00 -5°C° 0 mm 2 mps 744 mmHg 80%
    03:00 -5°C° 0 mm 2 mps 745 mmHg 80%
    04:00 -5°C° 0 mm 2 mps 745 mmHg 80%
    05:00 -5°C° 0 mm 2 mps 745 mmHg 81%
    06:00 -5°C° 0 mm 2 mps 746 mmHg 82%
    07:00 -5°C° 0 mm 2 mps 746 mmHg 84%
    08:00 -5°C° 0 mm 2 mps 747 mmHg 83%
    09:00 -4°C° 0 mm 2 mps 747 mmHg 82%
    10:00 -4°C° 0 mm 3 mps 748 mmHg 82%
    11:00 -4°C° 0 mm 3 mps 748 mmHg 76%
    12:00 -4°C° 0 mm 3 mps 748 mmHg 70%
    13:00 -2°C° 0 mm 3 mps 748 mmHg 64%
    14:00 -4°C° 0 mm 3 mps 749 mmHg 66%
    15:00 -3°C° 0 mm 2 mps 749 mmHg 67%
    16:00 -4°C° 0 mm 2 mps 750 mmHg 69%
    17:00 -4°C° 0 mm 2 mps 750 mmHg 71%
    18:00 -4°C° 0 mm 2 mps 750 mmHg 73%
    19:00 -3°C° 0 mm 1 mps 751 mmHg 75%
    20:00 -3°C° 0 mm 1 mps 751 mmHg 76%
    21:00 -3°C° 0 mm 1 mps 751 mmHg 77%
    22:00 -3°C° 0 mm 1 mps 752 mmHg 78%
    23:00 -4°C° 0 mm 1 mps 752 mmHg 78%
    Show more